XRISM

Last updated on Sun Jun 21 2026 00:02:16 GMT+0000 (Coordinated Universal Time)

1 57800U 23137A 26171.16040668 .00004151 00000+0 22709-3 0 9997 2 57800 31.0032 340.3423 0007922 353.3613 6.6920 15.12489019153310
UTC large
Height (km)
Speed (km/s)
/
Latitude / Longitude
Inclination (degrees)
Orbital Period (minutes)
Azimuth
Elevation
Range (km)
Doppler Factor

Next 0 passes for location: London (51.5072 / 0.1276)

No passes found over London.
XRISM